Regional Weather Roundup
Issued by NWS

Home | Current Version | Previous Version | Graphics & Text | Print | Product List | Glossary On
Versions: 1 2 3 4 5 6 7 8 9 10 11 12 13 14 15 16 17 18 19 20 21 22 23 24 25 26 27 28 29 30 31 32 33 34 35 36 37 38 39 40 41 42 43 44 45 46 47 48 49 50
000
ASUS45 KTFX 310619
RWRMT
MONTANA HOURLY WEATHER ROUNDUP
NATIONAL WEATHER SERVICE GREAT FALLS MT
1119 PM MST FRI JAN 30 2015

NOTE: "FAIR" INDICATES FEW OR NO CLOUDS BELOW 12000 FEET WITH NO
SIGNIFICANT WEATHER AND/OR OBSTRUCTIONS TO VISIBILITY.

* THESE STATIONS ARE NOT UNDER NWS QUALITY CONTROL. THEY DO NOT
   REPORT WEATHER SUCH AS PRECIPITATION OR FOG.

MTZ001>007-043-310700-
WEST OF THE DIVIDE
CITY           SKY/WX    TMP DP  RH WIND       PRES   REMARKS
KALISPELL      FOG       23  21  92 N5        30.16F VSB 3/4  WCI  16
MISSOULA       FOG       21  19  92 N5        30.18S WCI  14
BUTTE          CLEAR     19  16  88 CALM      30.09F
MULLAN PASS    CLOUDY    27  23  85 W5        30.09F WCI  21
* ANACONDA     CLEAR     25  16  69 NW6        N/A   WCI  18
* ESSEX        N/A       16  14  92 NW1        N/A
* EUREKA APT   MOCLDY    23  21  92 N3        30.15F
* HAMILTON APT PTCLDY    27  21  78 S7        30.14F WCI  19
* LIBBY APT    CLOUDY    27  25  92 CALM      30.18S
* LINCOLN      N/A       17  13  84 SE2        N/A
* LOOKOUT PASS N/A       28  25  89 N1         N/A
* POLSON       N/A       23  22  96 SE1        N/A
* RONAN APT    CLOUDY    23  21  92 N/A        N/A
* SEELEY LAKE  N/A       13  10  88 NE1G7      N/A
* THOMP F APT  CLOUDY    33  10  38 NW13G23    N/A   WCI  24
$$

MTZ008-052>055-310700-
SOUTHWEST MONTANA
CITY           SKY/WX    TMP DP  RH WIND       PRES   REMARKS
BOZEMAN        CLEAR     19  16  88 SE6       30.08F WCI  11
DILLON         CLEAR     23  16  74 S14       30.08F WCI  10
* W YELLOWSTON PTCLDY    10   7  88 N/A        N/A
* THREE FORKS  CLEAR     23  23 100 N/A        N/A
* BOULDER HILL N/A       28  12  51 SW8        N/A   WCI  20
* MONIDA PASS  N/A       15  11  84 W4         N/A
* RAYNOLDS PAS N/A       16 -30  10 VRB3       N/A
* WHITEHALL    N/A       23  18  81 N7         N/A   WCI  15
* WISE RIVER   N/A       17  12  81 NW5        N/A   WCI   9
$$

MTZ009>010-012-014-046-048-049-054-310700-
EAST SLOPES AND CENTRAL MONTANA
CITY           SKY/WX    TMP DP  RH WIND       PRES   REMARKS
CUT BANK       MOCLDY    37  18  46 W18       29.96S WCI  27
GREAT FALLS    CLEAR     32  19  59 S15       29.99F WCI  22
HELENA         CLEAR     28  21  75 S5        30.10R WCI  22
MALMSTROM AFB  CLEAR     30  21  69 SW15      30.00F WCI  19
* CONRAD       MOCLDY    27  21  78 CALM       N/A
* DEARBORN     N/A       32  20  61 S7         N/A   WCI  25
* EAST GLACIER N/A       33  16  50 W17        N/A   WCI  22
* MONARCH      N/A       28   8  43 SE3        N/A
* PENDROY      N/A       41  16  36 NW19G26    N/A
* ROGERS PASS  N/A       28  17  63 NW6G12     N/A   WCI  21
* SWEET GRASS  N/A       30  23  75 NW12       N/A   WCI  20
* WHITE SULPH  N/A       25  16  69 NE4        N/A
$$

MTZ011-013-016-021-035-040-045-047-050-051-310700-
NORTH CENTRAL MONTANA
CITY           SKY/WX    TMP DP  RH WIND       PRES   REMARKS
HAVRE          CLEAR     25  21  85 CALM      30.00F
LEWISTOWN      CLEAR     25  16  69 E3        29.98S
* N BAR RANCH  CLEAR     27  14  58 NW8       29.99F WCI  19
* CHINOOK      CLEAR     28  25  89 E9        30.02F WCI  19
* MALTA APT    CLEAR     28  25  89 E7         N/A   WCI  21
* CHESTER      N/A       25  21  85 NE2        N/A
* DENTON       N/A       22  18  85 SW5        N/A   WCI  15
* GEYSER       N/A       26  17  69 SW7        N/A   WCI  18
* JUDITH GAP   N/A       24  17  75 SE12       N/A   WCI  13
* LOMA         N/A       28  24  85 S4         N/A
$$

MTZ017>020-022>027-061-062-310700-
NORTHEAST MONTANA
CITY           SKY/WX    TMP DP  RH WIND       PRES   REMARKS
GLASGOW        PTCLDY    28  25  89 E15       30.09S WCI  16
GLENDIVE       CLEAR     27  23  85 NE7       30.12F WCI  19
JORDAN         CLEAR     25  21  85 E3        30.05F
SIDNEY         CLOUDY    28  25  89 NE9       30.19R VSB 3    WCI  19
WOLF POINT     CLOUDY    28  27  96 NE15      30.15S WCI  16
* BEAVER HILL  N/A       27  23  85 E7         N/A   WCI  19
* CIRCLE       N/A       30  26  85 N/A        N/A
* LINDSAY DVD  N/A       24  23  96 E6         N/A   WCI  17
* NAVAJO       N/A       22  20  92 NE11       N/A   WCI  11
* PLENTYWOOD A PTCLDY    21  19  92 NE12      30.20R WCI   9
* POPLAR APT   PTCLDY    27  27 100 N/A       30.17R VSB 2 1/2
* SACO         N/A       23  21  92 N4         N/A
* SCOBEY APT   MOCLDY    21  16  81 NE11G16    N/A   WCI   9
$$

MTZ028>042-056>058-310700-
SOUTHCENTRAL AND SOUTHEAST MONTANA
CITY           SKY/WX    TMP DP  RH WIND       PRES   REMARKS
BAKER          CLEAR     25  21  85 E3        30.10F
BILLINGS       PTCLDY    32  25  75 SW14      30.03F WCI  22
LIVINGSTON     CLEAR     34  18  52 W16       30.03F WCI  24
MILES CITY     PTCLDY    27  23  85 SE7       30.07F WCI  19
* BIG TIMBER A PTCLDY    32  18  56 W3        30.02F
* FORSYTH APT  PTCLDY    28  25  89 N3        30.06F
* LAUREL APT   MOCLDY    32  21  64 S6         N/A   WCI  26
* ROUNDUP APT  PTCLDY    32  18  56 S5         N/A   WCI  27
* ALZADA       N/A       26  21  81 E3         N/A
* HYSHAM       N/A       36  14  40 N/A        N/A
* LAME DEER    N/A       34  18  52 SE4        N/A
* REED POINT   N/A       23  19  85 E1         N/A
$$

REGIONAL REPORTS...DAKOTAS
CITY           SKY/WX    TMP DP  RH WIND       PRES   REMARKS
WILLISTON      CLOUDY    21  19  92 NE15      30.20F WCI   7
DICKINSON      CLEAR     25  19  78 E7        30.12S WCI  17
BEACH          CLEAR     25  25 100 SE5       30.12F WCI  19
CROSBY         FOG       23  23 100 N9        30.24R WCI  13
TIOGA          CLOUDY    21  21 100 NE9       30.22S WCI  11
WATFORD CITY   FOG       23  23 100 NE10      30.17S WCI  13
BISMARCK       CLOUDY    27  25  92 NE14      30.19R WCI  16
GRAND FORKS    CLOUDY    18  12  77 N17G25    30.23R WCI   3
FARGO          CLOUDY    27  19  72 N21       30.18R WCI  13
BUFFALO SD     PTCLDY    32  25  75 NE6       30.04F WCI  26
RAPID CITY     MOCLDY    27  21  78 NW8       30.11S WCI  19
$$

REGIONAL REPORTS...WYOMING/IDAHO/WASHINGTON
CITY           SKY/WX    TMP DP  RH WIND       PRES   REMARKS
GILLETTE       CLOUDY    25  21  85 S8        30.06F WCI  16
SHERIDAN       MOCLDY    27  19  72 N5        30.04F WCI  21
CODY           CLOUDY    28  21  75 S5        30.05F WCI  22
YELLOWSTONE LA MOCLDY     5   1  83 CALM      30.11S
SALMON         CLOUDY    27  19  72 E6        30.24S WCI  20
MULLAN PASS    CLOUDY    27  23  85 W5        30.09S WCI  21
SAND POINT     CLOUDY    32  32 100 SW7       30.23R WCI  25
SPOKANE        LGT SNOW  30  28  92 SW6       30.23S WCI  24
$$

REGIONAL REPORTS...ALBERTA
CITY           SKY/WX    TMP DP  RH WIND       PRES   REMARKS
CALGARY        LGT SNOW  21  19  92 NE13      30.17R VSB 3    WCI   8
LETHBRIDGE     FOG       28  28 100 N9        30.10R WCI  19
MEDICINE HAT   CLOUDY    25  25 100 NE17G25   30.12R WCI  12
EDMONTON       LGT SNOW   9   3  76 NE14      30.38S VSB 3    WCI  -7
WATERTON GATE  N/A       25  23  92 NE10       N/A   WCI  15
CARDSTON       N/A       25  25 100 N13G20     N/A   WCI  13
MILK RIVER     N/A       25  25 100 NW24       N/A   WCI  10
$$

REGIONAL REPORTS...SASKATCHEWAN
CITY           SKY/WX    TMP DP  RH WIND       PRES   REMARKS
SWIFT CURRENT  FOG       18  18 100 E20       30.17R WCI   2
REGINA         LGT SNOW  12   9  88 NE13      30.30R VSB 3    WCI  -3
VAL MARIE      N/A       27  25  92 E17        N/A   WCI  14
ASSINIBOIA     N/A       19  18  96 E9         N/A   WCI   8
CORONACH       N/A       21  19  92 NE9        N/A   WCI  11

$$




USA.gov is the U.S. government's official web portal to all federal, state and local government web resources and services.